Location: Mapua
(41.2500°S, 173.1000°E)
Time: 01:26:10
(UTC+13:00)

ISS - Visible Passes

Search period start: 22 October 2017 00:00
Search period end: 01 November 2017 00:00
Orbit: 401 x 408 km, 51.6° (Epoch: 22 October)

Date Brightness Start Highest point End Pass type
(mag) Time Alt. Az. Time Alt. Az. Time Alt. Az.
22 Oct -2.1 04:11:16 31° S 04:11:57 34° SSE 04:15:03 10° E visible
22 Oct -3.0 05:45:24 10° WSW 05:48:25 31° NW 05:51:23 10° NNE visible
23 Oct -0.4 03:22:08 11° ESE 03:22:08 11° ESE 03:22:15 10° ESE visible
23 Oct -3.9 04:54:53 33° WSW 04:56:09 62° NW 04:59:26 10° NE visible
23 Oct -2.4 21:32:24 10° NNW 21:34:12 26° N 21:34:12 26° N visible
24 Oct -1.3 04:06:24 16° ENE 04:06:24 16° ENE 04:07:07 10° ENE visible
24 Oct -1.9 05:39:12 13° WNW 05:39:53 14° NW 05:41:37 10° NNW visible
24 Oct -2.4 20:40:45 10° N 20:43:20 21° NE 20:45:56 10° E visible
24 Oct -2.6 22:16:21 10° WNW 22:19:02 42° WSW 22:19:02 42° WSW visible
25 Oct -3.8 21:23:50 10° NW 21:27:10 85° SW 21:30:24 11° SE visible
25 Oct -0.9 23:01:29 10° WSW 23:03:08 18° SW 23:03:08 18° SW visible
26 Oct -3.6 20:31:35 10° NW 20:34:49 49° NE 20:38:05 10° ESE visible
26 Oct -1.6 22:08:32 10° W 22:11:27 27° SSW 22:13:50 13° SSE visible
27 Oct -2.4 21:15:42 10° W 21:18:54 40° SSW 21:22:06 10° SE visible
27 Oct -0.9 22:53:56 10° SW 22:56:04 15° S 22:56:46 15° S visible
28 Oct -1.0 22:00:54 10° WSW 22:03:21 18° SSW 22:05:48 10° SSE visible
28 Oct -0.3 23:38:52 10° SSW 23:39:23 12° SSW 23:39:23 12° SSW visible
29 Oct -1.4 21:07:53 10° WSW 21:10:41 24° SSW 21:13:31 10° SE visible
29 Oct -0.8 22:46:11 10° SW 22:48:04 14° S 22:49:08 13° SSE visible
30 Oct -0.8 21:53:16 10° SW 21:55:18 15° S 21:57:20 10° SSE visible
30 Oct -0.5 23:30:26 10° SSW 23:31:24 14° SSW 23:31:24 14° SSW visible
31 Oct -1.0 21:00:13 10° WSW 21:02:33 17° SSW 21:04:53 10° SSE visible
31 Oct -1.0 22:38:00 10° SSW 22:40:02 15° S 22:40:56 14° SSE visible
